www.pogodaiklimat.ru

Погода и климат >> Архив погоды >> Россия >> Крым >> Нижнегорский


ПОГОДА в Нижнегорском

  • Прогноз погоды в Нижнегорском
  • Монитор погоды в Нижнегорском
  • Климат города

АРХИВ ПОГОДЫ в Нижнегорском

Время (UTC), дата Ветер
(напр.,м/с)
 
Видим.   Явления Облачность Т
(С)
Тd
(С)
f
(%)
Тe
(С)
Тes
(С)
Комфортность P
(гПа)
Po
(гПа)
Тmin
(С)
Tmax
(С)
R
(мм)
R24
(мм)
S
(см)
00 14.06 штиль 0 20 км ясно +15.0 +10.4 74 +15 +15 1006.5 1004.1
03 14.06 ЮЗ 2 50 км ясно +14.0 +8.9 71 +14 +14 1007.1 1004.7 +11.8
06 14.06 ЮЗ 2 50 км ясно +25.2 +12.8 46 +27 +36 жарко 1007.1 1004.8 +11.8
09 14.06 В 4 50 км 1/0
[Ci fib]
+30.4 +10.5 29 +30 +43 жарко 1006.4 1004.2
12 14.06 В 5 50 км 1/0
[Ci fib]
+30.8 +11.2 30 +31 +39 жарко 1005.9 1003.7
15 14.06 В 6
{10}
50 км ясно +29.3 +8.5 27 +29 +30 жарко 1005.6 1003.4
18 14.06 В 3 50 км 4/0
[Cs]
+28.2 +8.5 29 +28 +28 жарко 1005.6 1003.3 +31.4
21 14.06 З 1 20 км ясно +20.1 +15.4 74 +24 +24 комфорт 1005.6 1003.3
00 15.06 штиль 0 20 км ясно +15.5 +12.2 81 +15 +15 1005.5 1003.1
03 15.06 З 2 50 км 4/0
[Ci fib]
+16.4 +11.0 70 +17 +17 1005.2 1002.9 +14.1
06 15.06 В 1 50 км 9/0
[Cc]
+27.2 +19.8 64 +33 +42 очень
душно
1005.0 1002.7 +14.1
09 15.06 СВ 3 50 км 8/0
[Cc]
+31.2 +14.8 37 +33 +46 жарко 1004.6 1002.4
12 15.06 В 5 50 км 8/4 600 м
[Cb cap Ac cast Cs]
+30.6 +16.1 42 +34 +37 очень
душно
1004.5 1002.3
15 15.06 В 4 50 км 8/0
[Ac cuf]
+27.8 +19.0 59 +33 +34 очень
душно
1004.5 1002.3
18 15.06 СВ 2 50 км 10/0
[Ac As]
+25.4 +16.9 59 +29 +29 душно 1005.8 1003.5 +33.2
21 15.06 В 2 20 км 10/0
[Ac As]
+23.4 +18.7 75 +30 +30 очень
душно
1006.0 1003.7
00 16.06 штиль 0 20 км 10/0
[Ac As]
+21.1 +16.5 75 +25 +25 комфорт 1006.8 1004.5
03 16.06 СВ 2 50 км 10/6 600 м
[Cu Sc Ac As]
+21.4 +17.0 76 +25 +25 комфорт 1007.0 1004.7 +20.8
06 16.06 В 3 50 км 10/10 600 м
[Cu Sc]
+21.9 +18.3 80 +27 +27 душно 1007.8 1005.5 +20.8
09 16.06 СВ 2 50 км 9/3 600 м
[Cu hum Ac trans]
+25.8 +17.2 59 +30 +36 душно 1008.1 1005.8
12 16.06 В 2 50 км 8/6 600 м
[Cu Sc Cc]
+29.2 +16.0 45 +32 +38 душно 1007.8 1005.6
15 16.06 В 4 50 км 9/4 600 м
[Cu med, cong Cc]
+27.3 +17.7 56 +32 +33 очень
душно
1007.7 1005.4
18 16.06 ЮВ 5
{10}
20 км 9/0
[Ac trans]
+23.6 +17.0 66 +27 +27 жарко 1007.7 1005.4 +29.8
21 16.06 В 2 20 км 10/0
[Ac As]
+22.1 +17.4 75 +27 +27 душно 1008.5 1006.2
00 17.06 В 2 20 км 10/0
[Ac As]
+21.6 +18.6 83 +26 +26 душно 1008.5 1006.2
03 17.06 В 1 20 км 10/0
[Ac As]
+21.2 +17.6 80 +25 +25 комфорт 1008.4 1006.1 +21.0
06 17.06 штиль 0 50 км {дождь} 10/0
[Ac As]
+22.4 +18.3 78 +28 +32 душно 1008.3 1006.0 +21.0 0.0
09 17.06 СВ 3 50 км 9/3 600 м
[Cu med, cong Ac trans]
+24.4 +15.1 56 +27 +33 жарко 1008.8 1006.5
12 17.06 В 4
{10}
20 км слабый ливневой дождь 9/9 600 м
[Cb cap]
+22.8 +17.3 71 +28 +29 душно 1008.5 1006.2
15 17.06 В 4 20 км {ливн. осадки} 10/0
[Ac As]
+22.6 +16.0 66 +27 +28 душно 1008.6 1006.3 0.0
18 17.06 В 3 20 км {ливн. осадки} 6/0
[Ac trans Cc]
+20.2 +16.6 80 +23 +23 комфорт 1008.7 1006.4 +24.7 0.0
21 17.06 СВ 2 20 км 8/0
[Ac trans]
+18.4 +16.1 86 +20 +20 1008.8 1006.5
00 18.06 СВ 3 20 км 8/0
[Ac trans]
+17.0 +15.3 90 +17 +17 1008.4 1006.1
03 18.06 СВ 3 20 км 9/0
[Ac trans]
+19.2 +16.5 84 +21 +21 комфорт 1007.8 1005.5 +17.0
06 18.06 СВ 5 50 км 9/0
[Cc]
+23.8 +16.3 63 +27 +31 жарко 1008.3 1006.0 +17.0
09 18.06 В 6
{10}
50 км 8/0
[Ac trans Cc]
+27.3 +13.7 43 +29 +35 жарко 1008.3 1006.0
12 18.06 СВ 7
{11}
50 км 9/3 600 м
[Cu hum Ac trans Cc]
+25.9 +11.1 40 +27 +29 жарко 1008.9 1006.6
15 18.06 СВ 8-12
{12}
50 км 6/0
[Ac trans Cc]
+26.9 +9.4 33 +27 +28 жарко 1008.9 1006.6
18 18.06 СВ 3
{12}
50 км 8/0
[Ac trans Cc]
+23.4 +13.2 53 +27 +27 душно 1009.1 1006.8 +28.1
21 18.06 СВ 2 20 км 6/0
[Ac trans Cc]
+19.6 +15.4 77 +22 +22 комфорт 1009.9 1007.6
00 19.06 С 1 20 км 3/0
[Ci fib]
+15.4 +12.3 82 +16 +16 1010.3 1007.9
03 19.06 С 1 50 км ясно +13.6 +11.8 89 +14 +14 1010.6 1008.2 +13.4
06 19.06 СВ 4 50 км ясно +26.2 +15.6 52 +29 +36 жарко 1011.8 1009.5 +13.4
09 19.06 В 5 50 км 1/1 600 м
[Cu hum]
+28.3 +10.5 33 +29 +38 жарко 1012.3 1010.0
12 19.06 СВ 6 50 км 1/1 600 м
[Cu hum]
+29.8 +4.9 21 +28 +33 жарко 1012.5 1010.2
15 19.06 В 6 50 км ясно +29.1 +5.8 23 +28 +29 жарко 1012.6 1010.3
18 19.06 СВ 3 50 км ясно +24.0 +9.3 39 +25 +25 комфорт 1012.7 1010.4 +30.6
21 19.06 Ю 1 20 км ясно +15.1 +6.0 54 +16 +16 1013.9 1011.5
00 20.06 штиль 0 20 км ясно +12.7 +4.9 59 +12 +12 1014.2 1011.8
03 20.06 Ю 1 ясно 61 1013.3
06 20.06 З 1 50 км ясно +25.7 +9.6 36 +26 +37 жарко 1015.1 1012.8 +12.0
09 20.06 С 2 ясно 21 1013.3
12 20.06 В 4 ясно 17 1013.3
15 20.06 В 4 ясно 23 1012.0
18 20.06 ЮВ 2 ясно 39 1012.0
21 20.06 штиль 0 ясно 50 1013.3

 

Местоположение метеостанции Нижнегорский (Крым, Россия): широта 45.45 долгота 34.73 высота над уровнем моря 20 м.

В архиве по умолчанию представлена погода в Нижнегорском за последнюю неделю. Архивные данные за месяц целиком и за предыдущие месяцы, начиная с января 2011 года, Вы можете получить, выбрав интересующий диапазон дат из раскрывающегося списка и нажав кнопку "Ввод!".


*Определитесь, кто Вы:
робот инопланетянин человек

Внимание! Время в таблицах - всемирное. Для получения местного времени необходимо прибавить поправку, которая в Нижнегорском равна 3 ч.

Смотрите также архив погоды в соседних городах и на ближайших метеорологических станциях:

Погода в Стрелковом (Херсонская область, Украина) (18 км)
Погода в Джанкое (Крым, Россия) (40 км)
Погода в Клепинино (Крым, Россия) (44 км)
Погода в Белогорске (Крым, Россия) (46 км)
Погода в Владиславовке (Крым, Россия) (60 км)
Погода в Феодосии (Крым, Россия) (69 км)
Погода в Карадаге (Крым, Россия) (71 км)
Погода в Симферополе город (Крым, Россия) (73 км)
Погода в Симферополе (Крым, Россия) (76 км)
Погода в Геническе (Херсонская область, Украина) (80 км)

Пояснения к столбцам:

Ветер - указаны скорость ветра в м/с - средняя за 10 мин, порывы в срок и между сроками (в фигурных скобках) и направление, откуда дует ветер: С - северный, СВ - северо-восточный, В - восточный, ЮВ - юго-восточный, Ю - южный, ЮЗ - юго-западный, З - западный, СЗ - северо-западный.
Видимость - горизонтальная дальность видимости в метрах или километрах. При видимости от 1 до 10 км при отсутствии осадков обычно наблюдается дымка, при ухудшении видимости до 1 км и менее - туман. В сухую погоду видимость может ухудшаться дымом, пылью или мглою.
Явления - указаны атмосферные явления, наблюдавшиеся в срок или в последний час перед сроком; фигурными скобками обозначены явления, наблюдавшиеся между сроками (за 1-3 часа до срока); квадратными скобками обозначены град или гололедные отложения с указанием их диаметра в мм.
Облачность - указаны через наклонную черту общая и нижняя облачность в баллах и высота нижней границы облаков в метрах; квадратными скобками обозначены формы облаков: Ci - перистые, Cs - перисто-слоистые, Cc - перисто-кучевые, Ac - высококучевые, As - высокослоистые, Sc - слоисто-кучевые, Ns - слоисто-дождевые, Cu - кучевые, Cb - кучево-дождевые. Подробнее классификацию облаков см. в Атласе облаков (PDF).
T - Температура воздуха - температура, измеренная на высоте 2 м над землей.
Td - Температура точки росы - температура, при понижении до которой содержащийся в воздухе водяной пар достигнет насыщения.
f - Относительная влажность воздуха - влажноcть воздуха, измеренная на высоте 2 м над землей.
Te - Эффективная температура - температура, которую ощущает одетый по сезону человек в тени. Характеристика душности погоды. При расчете учитывается влияние влажности воздуха и скорости ветра на теплоощущения человека.
Tes - Эффективная температура на солнце - температура, которую ощущает человек, с поправкой на солнечный нагрев. Характеристика знойности погоды. Зависит от высоты солнца над горизонтом, облачности и скорости ветра. Ночью, в пасмурную погоду, а также при ветре 12 м/с и более поправка равна нулю.
P - Атмосферное давление - приведенное к уровню моря атмосферное давление.
Po - Атмосферное давление - измеренное на уровне метеостанции атмосферное давление.
Tmin - Минимальная температура - минимум температуры воздуха на высоте 2 м над землей.
Tmax - Максимальная температура - максимум температуры воздуха на высоте 2 м над землей.
R - Количество осадков - Количество выпавших осадков за период времени, мм. При наведении курсора мыши на число - период времени, за который выпало указанное количество осадков.
R24 - Количество осадков - Количество выпавших осадков за 24 часа, мм.
S - Снежный покров - Высота снежного покрова, см. При наведении курсора мыши на число - состояние снежного покрова и степень покрытия местности в баллах.